DateTimeUTC,F1_A11,F1_S11,BsB_S11,BsG_S11,BsR_S11,BbsB_S11,BbsG_S11,BbsR_S11,BaB_A11,BaG_A11,BaR_A11,Tu_S11,T_S11,Uu_S11,U_S11,P_S11,T1_A11
2021-07-29T23:00:00Z,00040200,20000000,,,,,,,0000.54,0000.40,-000.26,20.0,26.7,08.1,05.4,0686.0,31.2
2021-07-29T23:01:00Z,00040200,20000000,,,,,,,-000.25,-000.13,0000.41,20.0,26.7,08.1,05.4,0686.0,31.2
2021-07-29T23:02:00Z,00040200,20000000,,,,,,,-000.44,-000.33,-000.44,20.0,26.7,08.1,05.4,0686.0,31.2
2021-07-29T23:03:00Z,00040200,60000000,,,,,,,-000.13,-000.08,0000.31,20.0,26.7,08.1,05.4,0686.0,31.2
2021-07-29T23:04:00Z,00040200,40000000,0003.97,0002.72,0001.86,0000.59,0000.38,0000.15,-000.01,0000.45,-000.32,20.1,26.5,07.6,05.2,0686.9,31.2
2021-07-29T23:05:00Z,00040200,00000000,0003.19,0003.35,0002.03,0000.08,0000.48,0000.47,0000.49,0000.56,0000.69,20.1,26.4,07.2,04.9,0686.9,31.2
2021-07-29T23:06:00Z,00040200,00000000,0004.66,0003.04,0001.99,0000.48,0000.18,0000.53,0000.87,0000.28,0000.12,20.1,26.4,07.2,04.9,0686.9,31.2
2021-07-29T23:07:00Z,00040200,00000000,0004.29,0003.13,0002.15,0000.97,0000.08,0000.51,0000.91,0000.54,0000.28,20.1,26.4,07.2,04.9,0686.9,31.2
2021-07-29T23:08:00Z,00040200,00000000,0004.40,0003.25,0002.18,0000.37,0000.60,0000.72,0000.97,0001.02,0000.95,20.1,26.4,07.2,05.0,0686.9,31.2
2021-07-29T23:09:00Z,00040200,00000000,0004.11,0003.13,0002.50,-000.02,0000.46,0000.71,0001.03,0001.18,0000.21,20.1,26.4,07.3,05.0,0686.9,31.2
2021-07-29T23:10:00Z,00040200,00000000,0004.39,0003.49,0001.65,0000.32,0000.51,0000.39,0001.17,0000.95,0001.36,20.1,26.4,07.3,05.0,0686.9,31.2
2021-07-29T23:11:00Z,00040200,00000000,0003.88,0003.27,0002.03,-000.31,0000.45,0000.74,0000.58,0000.59,0000.53,20.1,26.4,07.5,05.2,0686.9,31.2
2021-07-29T23:12:00Z,00040200,00000000,0004.68,0003.05,0001.80,0000.77,0000.66,0000.13,0001.01,0000.67,0000.68,20.1,26.4,07.5,05.2,0686.9,31.2
2021-07-29T23:13:00Z,00040200,00000000,0003.85,0002.81,0002.13,0000.38,0000.58,0000.51,0000.78,0000.94,0000.41,20.1,26.4,07.4,05.1,0686.9,31.2
2021-07-29T23:14:00Z,00040200,00000000,0003.62,0003.42,0001.77,0000.29,0000.41,0000.38,-000.10,0000.03,0000.26,20.1,26.3,07.2,05.0,0686.9,31.2
2021-07-29T23:15:00Z,00040200,00000000,0003.94,0003.09,0001.98,0000.24,0000.28,0000.64,0000.43,0000.30,-000.22,20.1,26.3,07.0,04.8,0686.9,31.2
2021-07-29T23:16:00Z,00040200,00000000,0004.08,0003.26,0002.08,0000.42,0000.04,0000.43,0001.17,0001.34,0000.92,20.1,26.3,07.0,04.8,0686.9,31.2
2021-07-29T23:17:00Z,00040200,00000000,0003.91,0002.96,0001.83,0000.57,0000.39,0000.52,0001.06,0000.31,0000.57,20.1,26.3,07.1,04.9,0686.9,31.2
2021-07-29T23:18:00Z,00040200,00000000,0004.24,0003.25,0002.05,0000.53,0000.38,0000.72,0001.36,0001.45,0001.00,20.1,26.3,07.2,04.9,0686.9,31.2
2021-07-29T23:19:00Z,00040200,00000000,0004.65,0003.30,0001.88,0000.68,0000.31,0000.95,0002.01,0001.94,0001.76,20.1,26.3,07.6,05.2,0686.9,31.2
2021-07-29T23:20:00Z,00040200,00000000,0004.90,0003.25,0001.70,0000.12,0000.45,0000.41,0001.21,0001.03,0000.88,20.1,26.3,08.0,05.5,0686.9,31.2
2021-07-29T23:21:00Z,00040200,00000000,0004.44,0003.03,0002.09,0000.51,0000.68,0000.97,0000.99,0001.23,0001.20,20.1,26.3,08.1,05.5,0686.9,31.2
2021-07-29T23:22:00Z,00040200,00000000,0003.98,0003.22,0001.87,0000.62,0000.54,0000.57,0001.45,0000.71,0000.70,20.1,26.3,08.2,05.6,0686.9,31.2
2021-07-29T23:23:00Z,00040200,00000000,0004.16,0003.32,0002.27,0000.42,0000.39,0000.44,0000.71,0001.02,0000.03,20.0,26.3,08.2,05.6,0686.9,31.2
2021-07-29T23:24:00Z,00040200,00000000,0004.23,0003.35,0002.15,0000.77,0000.62,0000.74,0000.25,-000.03,0000.32,20.0,26.3,08.0,05.5,0686.9,31.2
2021-07-29T23:25:00Z,00040200,00000000,0004.62,0003.42,0002.08,-000.11,0000.38,0000.27,0000.95,0001.13,0000.92,20.0,26.3,07.9,05.4,0686.9,31.2
2021-07-29T23:26:00Z,00040200,00000000,0003.56,0002.97,0002.24,0000.41,0000.39,0000.14,0000.30,0000.26,0000.22,20.0,26.3,07.8,05.4,0686.9,31.2
2021-07-29T23:27:00Z,00040200,00000000,0004.67,0002.76,0002.31,-000.39,0000.68,0000.61,0000.74,0000.61,0000.21,20.0,26.3,07.8,05.3,0686.9,31.2
2021-07-29T23:28:00Z,00040200,00000000,0004.83,0003.30,0001.81,-000.20,0000.52,0000.39,0001.09,0000.90,0000.89,20.0,26.2,07.9,05.4,0686.9,31.2
2021-07-29T23:29:00Z,00040200,00000000,0004.78,0002.91,0002.16,0000.46,0000.40,0000.56,0000.69,0000.59,0000.39,20.0,26.2,07.8,05.4,0686.9,31.2
2021-07-29T23:30:00Z,00040200,00000000,0004.03,0002.94,0002.39,0000.45,0000.28,0000.70,0000.76,0000.91,0000.29,20.0,26.2,07.8,05.3,0686.9,31.2
2021-07-29T23:31:00Z,00040200,00000000,0004.45,0002.61,0002.12,0000.02,0000.41,0000.79,0000.37,0000.60,0000.46,20.0,26.2,07.6,05.2,0686.9,31.2
2021-07-29T23:32:00Z,00040200,00000000,0003.63,0003.22,0001.84,-000.39,0000.43,0000.30,0000.86,0000.24,0000.45,20.0,26.2,07.6,05.2,0686.9,31.2
2021-07-29T23:33:00Z,00040200,00000000,0003.61,0003.10,0002.18,0000.58,0000.38,0000.52,0001.00,0000.75,0000.57,20.0,26.2,07.5,05.2,0686.9,31.2
2021-07-29T23:34:00Z,00040200,00000000,0005.21,0003.29,0001.43,0000.47,0000.24,0000.37,0000.82,0001.13,0000.87,20.0,26.2,07.5,05.1,0686.9,31.2
2021-07-29T23:35:00Z,00040200,00000000,0004.42,0003.37,0001.79,0000.85,0000.25,0000.51,0000.75,0000.78,0000.76,20.0,26.2,07.6,05.2,0686.9,31.2
2021-07-29T23:36:00Z,00040200,00000000,0004.18,0003.40,0002.10,0000.58,0000.64,0000.24,0001.28,0001.14,0000.86,20.0,26.2,07.6,05.2,0686.9,31.2
2021-07-29T23:37:00Z,00040200,00000000,0004.93,0003.08,0001.82,0000.64,0000.50,0000.62,0000.84,0000.73,0000.66,19.9,26.2,07.8,05.4,0686.9,31.2
2021-07-29T23:38:00Z,00040200,00000000,0004.39,0003.33,0002.42,-000.31,0000.28,0000.60,0000.87,0000.67,0000.30,19.9,26.1,07.7,05.3,0686.9,31.2
2021-07-29T23:39:00Z,00040200,00000000,0005.17,0002.95,0002.04,0000.97,0000.17,0000.58,0000.76,0001.19,0000.43,19.9,26.2,07.7,05.3,0686.9,31.2
2021-07-29T23:40:00Z,00040200,00000000,0004.67,0002.91,0002.06,0000.74,0000.33,0000.39,0000.97,0000.34,0000.72,19.9,26.1,07.8,05.3,0686.9,31.2
2021-07-29T23:41:00Z,00040200,00000000,0004.17,0003.34,0001.98,0000.10,0000.39,0000.71,0001.27,0001.08,0000.87,19.9,26.2,07.9,05.4,0686.9,31.2
2021-07-29T23:42:00Z,00040200,00000000,0004.56,0003.36,0002.05,0000.33,0000.48,0000.38,0000.93,0000.91,0000.79,19.9,26.1,07.9,05.4,0686.8,31.2
2021-07-29T23:43:00Z,00040200,00000000,0004.36,0003.59,0002.06,0000.77,0000.45,0000.44,0000.70,0000.69,0000.19,19.9,26.1,08.0,05.4,0686.9,31.2
2021-07-29T23:44:00Z,00040200,00000000,0003.54,0003.43,0002.17,0000.95,0000.38,0000.58,0000.95,0000.79,0001.04,19.9,26.1,07.9,05.4,0686.8,31.2
2021-07-29T23:45:00Z,00040200,00000000,0003.74,0003.23,0002.07,0000.55,0000.62,0000.46,0000.98,0001.42,0000.62,19.9,26.1,07.9,05.4,0686.8,31.2
2021-07-29T23:46:00Z,00040200,00000000,0004.47,0003.05,0002.19,-000.11,0000.28,0000.44,0000.90,0000.52,0000.72,19.9,26.1,08.0,05.5,0686.9,31.2
2021-07-29T23:47:00Z,00040200,00000000,0004.28,0003.39,0002.49,-000.07,0000.41,0000.26,0001.16,0001.03,0000.39,19.9,26.1,08.0,05.5,0686.9,31.2
2021-07-29T23:48:00Z,00040200,00000000,0004.04,0003.22,0002.28,0000.38,0000.38,0000.22,0000.47,0000.63,0000.58,19.9,26.1,08.1,05.5,0686.9,31.2
2021-07-29T23:49:00Z,00040200,00000000,0003.65,0003.23,0002.13,0001.24,0000.34,0000.83,0000.70,0000.73,0000.78,19.9,26.1,08.0,05.5,0686.9,31.2
2021-07-29T23:50:00Z,00040200,00000000,0003.56,0003.01,0001.48,0001.21,0000.26,0000.56,0000.58,0000.54,0000.58,19.8,26.1,07.9,05.4,0686.9,31.2
2021-07-29T23:51:00Z,00040200,00000000,0003.74,0002.93,0002.11,0000.59,0000.31,0000.57,0000.89,0000.29,0000.10,19.8,26.1,07.8,05.3,0686.9,31.2
2021-07-29T23:52:00Z,00040200,00000000,0004.76,0003.16,0001.90,0000.23,0000.44,0000.45,-000.82,-000.88,-000.55,19.8,26.0,07.6,05.2,0686.9,31.1
2021-07-29T23:53:00Z,00040200,00000000,0004.29,0002.81,0001.84,0000.64,0000.34,0000.64,0001.19,0001.29,0000.81,19.8,26.1,07.2,04.9,0686.9,31.2
2021-07-29T23:54:00Z,00040200,00000000,0003.73,0003.05,0002.03,0000.05,0000.54,0000.65,-000.17,-000.43,-000.42,19.8,26.1,07.1,04.9,0686.9,31.2
2021-07-29T23:55:00Z,00040200,00000000,0003.41,0002.95,0001.73,-000.08,0000.45,0000.83,-001.77,-001.61,-001.36,19.8,26.0,06.5,04.4,0686.9,31.1
2021-07-29T23:56:00Z,00040200,00000000,0003.82,0002.69,0001.61,0000.47,0000.58,0000.50,-000.08,0000.26,0000.02,19.8,26.0,05.7,03.9,0686.8,31.1
2021-07-29T23:57:00Z,00040200,40000000,,,,,,,0001.72,0001.62,0001.08,19.8,26.1,05.7,03.9,0686.8,31.1
2021-07-29T23:58:00Z,00040200,60000000,,,,,,,-000.99,-000.68,-000.57,19.6,26.2,06.2,04.1,0685.8,31.1
2021-07-29T23:59:00Z,00040200,20000000,,,,,,,-000.21,-000.75,-000.56,19.6,26.3,05.9,03.9,0685.8,31.2
